Location: Rogalle
(42.8890°N, 1.1916°E)
Time: 22:54:57
(UTC+00:00)

Cosmos 2266 Rocket - Visible Passes

Search period start: 13 March 2026 00:00
Search period end: 23 March 2026 00:00
Orbit: 935 x 1006 km, 82.9° (Epoch: 13 March)

Date Brightness Start Highest point End Pass type
(mag) Time Alt. Az. Time Alt. Az. Time Alt. Az.
13 Mar 7.0 05:01:26 10° NNE 05:04:28 13° ENE 05:07:28 10° E visible
13 Mar 4.9 18:30:10 10° SE 18:35:11 26° E 18:40:16 10° NNE visible
13 Mar 4.8 20:14:00 10° SSW 20:20:03 50° WNW 20:26:15 10° N visible
14 Mar 6.7 05:23:46 10° NNE 05:28:44 23° ENE 05:33:39 10° ESE visible
14 Mar 4.3 18:52:44 10° SSE 18:58:37 45° E 19:04:36 10° NNE visible
14 Mar 5.8 20:38:37 10° SW 20:44:02 30° WNW 20:49:34 10° NNW visible
15 Mar 3.9 19:15:57 10° S 19:22:12 77° E 19:28:36 10° N visible
15 Mar 6.6 21:04:06 10° WSW 21:08:13 18° WNW 21:12:24 10° NNW visible
16 Mar 7.4 04:29:15 10° NE 04:30:07 10° ENE 04:30:59 10° ENE visible
16 Mar 4.5 19:39:44 10° SSW 19:45:57 64° W 19:52:19 10° N visible
17 Mar 6.9 04:50:13 10° NNE 04:54:30 18° ENE 04:58:43 10° ESE visible
17 Mar 5.5 20:04:05 10° SW 20:09:52 37° WNW 20:15:46 10° N visible
18 Mar 6.2 05:13:05 10° N 05:18:40 31° ENE 05:24:08 10° SE visible
18 Mar 4.1 18:42:02 10° S 18:48:12 61° E 18:54:30 10° NNE visible
18 Mar 6.4 20:29:09 10° WSW 20:33:58 22° WNW 20:38:51 10° NNW visible
19 Mar 4.2 19:05:35 10° S 19:11:53 80° W 19:18:20 10° N visible
19 Mar 7.0 20:55:25 10° W 20:58:15 13° WNW 21:01:06 10° NW visible
20 Mar 7.1 04:16:53 10° NNE 04:20:12 14° ENE 04:23:29 10° E visible
20 Mar 5.1 19:29:41 10° SSW 19:35:44 47° WNW 19:41:55 10° N visible
21 Mar 6.5 04:39:22 10° NNE 04:44:27 24° ENE 04:49:27 10° ESE visible
21 Mar 6.1 19:54:24 10° SW 19:59:45 28° WNW 20:05:11 10° NNW visible
22 Mar 5.6 05:02:32 10° N 05:08:32 41° ENE 05:14:23 10° SE visible
22 Mar 4.1 18:31:32 10° S 18:37:52 82° E 18:44:18 10° N visible
22 Mar 6.9 20:20:02 10° WSW 20:23:57 17° WNW 20:27:56 10° NNW visible
